FW5708 Weather Reports


time (UTC)temp
F
wind
direction
speed
knots
gust
knots
rain 1hr
in
rain 24hr
in
rain mn
in
humidity
%
barometer
mb
20260504042502 57 228 1.7 2.6 0.00 0.00 0.00 71 999.0
20260504042002 57 270 1.7 1.7 0.00 0.00 0.00 71 998.9
20260504041502 57 217 3.5 4.3 0.00 0.00 0.00 70 998.9
20260504041002 58 233 1.7 2.6 0.00 0.00 0.00 69 998.8
20260504040502 58 256 2.6 3.5 0.00 0.00 0.00 68 999.0
20260504040002 58 286 2.6 3.5 0.00 0.00 0.00 68 998.9
20260504035502 58 263 1.7 2.6 0.00 0.00 0.00 68 998.7
20260504035002 59 267 0.9 1.7 0.00 0.00 0.00 67 998.8
20260504034502 59 251 1.7 3.5 0.00 0.00 0.00 67 998.9
20260504034002 59 262 1.7 2.6 0.00 0.00 0.00 67 998.8
20260504033502 59 247 1.7 1.7 0.00 0.00 0.00 66 998.8
20260504033002 59 240 1.7 2.6 0.00 0.00 0.00 66 999.3
20260504032502 59 251 2.6 3.5 0.00 0.00 0.00 66 999.2
20260504032002 59 251 2.6 2.6 0.00 0.00 0.00 65 999.1
20260504031502 59 267 1.7 2.6 0.00 0.00 0.00 65 999.2
20260504031002 59 269 0.9 1.7 0.00 0.00 0.00 65 999.2
20260504030503 60 252 2.6 3.5 0.00 0.00 0.00 65 999.2
20260504030002 60 264 1.7 2.6 0.00 0.00 0.00 64 999.2
20260504025502 60 267 1.7 2.6 0.00 0.00 0.00 64 999.3
20260504025002 60 263 1.7 2.6 0.00 0.00 0.00 64 999.3
20260504024502 60 264 0.9 1.7 0.00 0.00 0.00 64 999.4
20260504023502 60 237 2.6 3.5 0.00 0.00 0.00 63 999.3
20260504022501 60 251 1.7 3.5 0.00 0.00 0.00 63 999.3
20260504022002 61 270 1.7 2.6 0.00 0.00 0.00 63 999.4
20260504021501 61 270 0.9 1.7 0.00 0.00 0.00 63 999.3
20260504021002 61 267 0.9 1.7 0.00 0.00 0.00 62 999.3
20260504020502 61 262 0.9 1.7 0.00 0.00 0.00 62 999.2
20260504020001 62 268 1.7 1.7 0.00 0.00 0.00 61 999.0
20260504015502 62 256 1.7 2.6 0.00 0.00 0.00 61 998.9
20260504014501 62 254 3.5 3.5 0.00 0.00 0.00 60 999.0
20260504014003 62 263 1.7 2.6 0.00 0.00 0.00 59 998.8
20260504013502 62 273 2.6 3.5 0.00 0.00 0.00 59 999.0
20260504013002 63 255 1.7 2.6 0.00 0.00 0.00 59 998.7
20260504012502 63 235 4.3 4.3 0.00 0.00 0.00 58 998.8
20260504012002 63 260 1.7 2.6 0.00 0.00 0.00 58 998.6
20260504011502 64 243 2.6 2.6 0.00 0.00 0.00 58 998.7
20260504011002 64 263 3.5 4.3 0.00 0.00 0.00 57 998.6
20260504010002 64 262 1.7 2.6 0.00 0.00 0.00 56 998.7
20260504005502 64 275 1.7 2.6 0.00 0.00 0.00 56 998.5
20260504005002 64 267 1.7 2.6 0.00 0.00 0.00 55 998.7
20260504004002 65 263 1.7 2.6 0.00 0.00 0.00 54 998.5
20260504003502 65 277 1.7 2.6 0.00 0.00 0.00 54 998.6
20260504003002 66 261 2.6 3.5 0.00 0.00 0.00 53 998.6
20260504002001 67 270 3.5 5.2 0.00 0.00 0.00 51 998.6
20260504001502 67 239 1.7 3.5 0.00 0.00 0.00 52 998.6
20260504001002 67 219 1.7 3.5 0.00 0.00 0.00 51 998.7
20260504000501 68 280 2.6 2.6 0.00 0.00 0.00 50 998.8
20260504000003 68 269 4.3 5.2 0.00 0.00 0.00 49 998.9
20260503235501 68 273 2.6 3.5 0.00 0.00 0.00 49 998.6
20260503235003 68 275 2.6 3.5 0.00 0.00 0.00 48 998.6
20260503234502 69 263 3.5 3.5 0.00 0.00 0.00 48 998.6
20260503233002 69 274 3.5 4.3 0.00 0.00 0.00 47 998.7
20260503232502 69 244 2.6 3.5 0.00 0.00 0.00 48 998.7
20260503232002 69 255 3.5 4.3 0.00 0.00 0.00 47 998.8
20260503231502 69 221 5.2 8.7 0.00 0.00 0.00 46 998.7
20260503231002 69 254 3.5 4.3 0.00 0.00 0.00 45 998.7
20260503230501 69 257 4.3 5.2 0.00 0.00 0.00 46 998.6
20260503230003 70 262 5.2 7.8 0.00 0.00 0.00 45 998.5
20260503225501 70 263 2.6 3.5 0.00 0.00 0.00 47 998.9
20260503225002 69 269 5.2 7.8 0.00 0.00 0.00 47 998.9
20260503224502 69 275 6.1 9.6 0.00 0.00 0.00 46 998.8
20260503224002 68 267 6.1 8.7 0.00 0.00 0.00 48 998.8
20260503223502 68 214 5.2 8.7 0.00 0.00 0.00 47 999.0
20260503223002 68 240 3.5 4.3 0.00 0.00 0.00 48 999.1
20260503222502 68 280 5.2 8.7 0.00 0.00 0.00 47 999.3
20260503222001 68 282 2.6 3.5 0.00 0.00 0.00 47 998.9
20260503221501 68 222 5.2 7.8 0.00 0.00 0.00 46 998.9
20260503221003 69 256 5.2 8.7 0.00 0.00 0.00 46 999.3
20260503220002 68 274 2.6 3.5 0.00 0.00 0.00 47 999.4
20260503215502 68 293 4.3 5.2 0.00 0.00 0.00 46 999.2
20260503215002 68 182 6.1 8.7 0.00 0.00 0.00 46 999.4
20260503214502 67 247 3.5 3.5 0.00 0.00 0.00 48 999.5
20260503214003 68 205 2.6 4.3 0.00 0.00 0.00 48 999.5
20260503213502 67 258 3.5 5.2 0.00 0.00 0.00 47 999.5
20260503213002 66 306 2.6 3.5 0.00 0.00 0.00 48 999.6
20260503212502 66 254 7.8 10.4 0.00 0.00 0.00 48 999.8
20260503211501 67 244 7.8 11.3 0.00 0.00 0.00 46 999.7
20260503211002 66 268 4.3 6.1 0.00 0.00 0.00 49 1000.0
20260503210502 66 224 8.7 11.3 0.00 0.00 0.00 46 1000.0
20260503210002 67 246 7.0 9.6 0.00 0.00 0.00 46 1000.2
20260503205502 67 270 3.5 5.2 0.00 0.00 0.00 48 1000.2
20260503205003 67 261 5.2 6.1 0.00 0.00 0.00 46 1000.5
20260503204502 67 220 7.0 10.4 0.00 0.00 0.00 45 1000.4
20260503204002 67 230 5.2 7.8 0.00 0.00 0.00 45 1000.4
20260503203001 64 239 5.2 7.8 0.00 0.00 0.00 46 1000.8
20260503202501 64 226 7.8 12.2 0.00 0.00 0.00 47 1000.9
20260503202002 65 253 4.3 7.8 0.00 0.00 0.00 46 1001.0
20260503201502 66 256 4.3 5.2 0.00 0.00 0.00 45 1001.1
20260503200502 66 245 7.0 7.8 0.00 0.00 0.00 47 1001.1
20260503200002 66 247 7.0 11.3 0.00 0.00 0.00 47 1001.2
20260503195502 64 248 6.1 8.7 0.00 0.00 0.00 48 1001.6
20260503195002 63 233 2.6 4.3 0.00 0.00 0.00 50 1001.2
20260503194502 64 276 5.2 8.7 0.00 0.00 0.00 50 1001.4
20260503194002 64 223 5.2 6.1 0.00 0.00 0.00 53 1001.3
20260503193501 64 208 11.3 13.0 0.00 0.00 0.00 52 1001.5
20260503193002 64 213 5.2 9.6 0.00 0.00 0.00 55 1001.4
20260503192502 63 243 4.3 5.2 0.00 0.00 0.00 57 1001.4
20260503192002 62 253 4.3 5.2 0.00 0.00 0.00 58 1001.6
20260503191501 62 244 7.8 11.3 0.00 0.00 0.00 60 1001.8
20260503191002 61 274 6.1 9.6 0.00 0.00 0.00 61 1001.8
20260503190502 60 254 3.5 6.1 0.00 0.00 0.00 60 1001.7
20260503190002 60 218 12.2 16.5 0.00 0.00 0.00 59 1001.8
20260503185501 60 273 8.7 11.3 0.00 0.00 0.00 61 1001.9
20260503185002 60 259 3.5 4.3 0.00 0.00 0.00 62 1002.2
20260503184502 59 255 7.8 10.4 0.00 0.00 0.00 62 1002.3
20260503183502 60 284 1.7 2.6 0.00 0.00 0.00 65 1002.4
20260503183002 59 271 0.9 1.7 0.00 0.00 0.00 66 1002.8
20260503182502 58 243 2.6 4.3 0.00 0.00 0.00 66 1002.8
20260503182002 57 249 6.1 9.6 0.00 0.00 0.00 66 1002.6
20260503181502 56 252 5.2 8.7 0.00 0.00 0.00 66 1002.8
20260503181002 56 224 3.5 5.2 0.00 0.00 0.00 67 1003.0
20260503180501 57 215 5.2 6.1 0.00 0.00 0.00 67 1003.1
20260503175002 55 254 1.7 3.5 0.00 0.00 0.00 72 1003.3
20260503174502 54 270 0.9 2.6 0.00 0.00 0.00 73 1003.6
20260503174002 54 260 3.5 7.8 0.00 0.00 0.00 74 1003.7
20260503173501 53 265 7.8 10.4 0.00 0.00 0.00 75 1004.4
20260503173001 53 239 1.7 4.3 0.00 0.00 0.00 79 1004.5
20260503172502 53 243 1.7 3.5 0.00 0.00 0.00 80 1004.5
20260503172002 53 245 3.5 4.3 0.00 0.00 0.00 81 1004.6
20260503171502 52 271 3.5 4.3 0.00 0.00 0.00 83 1004.9
20260503150501 54 227 3.5 4.3 0.00 0.00 0.00 64 1006.4
20260503130502 49 244 4.3 5.2 0.00 0.00 0.00 67 1007.1
20260503110501 46 222 4.3 6.1 0.00 0.00 0.00 69 1006.7
20260503090502 44 262 1.7 1.7 0.00 0.00 0.00 68 1007.4
20260503081502 44 267 1.7 3.5 0.00 0.00 0.00 67 1007.6
20260503081001 44 265 1.7 2.6 0.00 0.00 0.00 67 1007.6
20260503080502 44 273 1.7 2.6 0.00 0.00 0.00 66 1007.7
20260503072501 43 262 1.7 2.6 0.00 0.00 0.00 67 1007.9
20260503072002 43 271 0.9 1.7 0.00 0.00 0.00 67 1008.0
20260503071502 43 264 1.7 2.6 0.00 0.00 0.00 68 1007.7
20260503071001 43 269 0.9 1.7 0.00 0.00 0.00 68 1007.7
20260503054002 44 267 0.9 1.7 0.00 0.00 0.00 65 1008.7
20260503053501 44 267 0.0 0.0 0.00 0.00 0.00 65 1008.6
20260503053001 44 265 0.9 1.7 0.00 0.00 0.00 66 1008.5
20260503052502 43 264 0.9 1.7 0.00 0.00 0.00 68 1008.5
20260503052002 43 265 0.9 1.7 0.00 0.00 0.00 68 1008.8
20260503051502 43 265 0.0 0.0 0.00 0.00 0.00 68 1008.8
20260503051002 43 265 0.0 0.0 0.00 0.00 0.00 68 1008.5
20260503050502 43 265 0.0 0.0 0.00 0.00 0.00 69 1008.6
20260503045502 42 265 0.9 1.7 0.00 0.00 0.00 71 1008.7
20260503045002 42 266 0.0 0.0 0.00 0.00 0.00 72 1008.7
20260503044003 42 266 0.0 0.0 0.00 0.00 0.00 71 1008.8
20260503043501 42 266 0.0 0.0 0.00 0.00 0.00 71 1008.8